Regional Weather Roundup
Issued by NWS Mt. Holly, NJ

Home | Current Version | Previous Version | Text Only | Print | Product List | Glossary On
Versions: 1 2 3 4 5 6 7 8 9 10 11 12 13 14 15 16 17 18 19 20 21 22 23 24 25 26 27 28 29 30 31 32 33 34 35 36 37 38 39 40 41 42 43 44 45 46 47 48 49 50
000
ASUS41 KPHI 270810
RWRPHI

REGIONAL WEATHER ROUNDUP
NATIONAL WEATHER SERVICE MOUNT HOLLY NJ
300 AM EST SAT DEC 27 2014

NOTE:  "FAIR" INDICATES FEW OR NO CLOUDS BELOW 12,000 FEET WITH NO
SIGNIFICANT WEATHER AND/OR OBSTRUCTIONS TO VISIBILITY.

 * = STATION DOES NOT REPORT PRECIPITATION (E.G. RAIN, SNOW, ETC.)
        OR FOG.

NJZ015>026-270900-
SOUTHERN NEW JERSEY

CITY           SKY/WX    TMP DP  RH WIND       PRES   REMARKS
POMONA         CLEAR     33  30  88 CALM      30.25R
RIO GRANDE*    CLEAR     34  27  75 W3        30.24S
MILLVILLE      PTCLDY    28  25  88 CALM      30.24S
WRIGHTSTOWN    PTCLDY    34  30  88 W3        30.22R
MOUNT HOLLY    CLEAR     35  31  85 CALM      30.24R
TRENTON        PTCLDY    38  29  70 W5        30.23R WCI  34

$$
NJZ001>014-270900-
NORTHERN NEW JERSEY

CITY           SKY/WX    TMP DP  RH WIND       PRES   REMARKS
SUSSEX         MOCLDY    27  26  96 CALM      30.20S
ANDOVER*       NOT AVBL
MORRISTOWN     PTCLDY    30  28  93 CALM      30.21S
NEWARK         PTCLDY    39  30  70 CALM      30.21F
TETERBORO      PTCLDY    31  29  92 CALM      30.20S
CALDWELL       PTCLDY    32  28  85 S5        30.21F WCI  27
SOMERVILLE     PTCLDY    27  23  85 CALM      30.21R
ALLAIRE*       PTCLDY    36  27  69 SW6       30.22R WCI  31
TOMS RIVER*    PTCLDY    30  28  93 CALM      30.23S

$$
PAZ043-044-047-054-055-060>062-066>071-270900-
EASTERN PENNSYLVANIA

CITY           SKY/WX    TMP DP  RH WIND       PRES   REMARKS
PHILADELPHIA   PTCLDY    34  30  85 SW5       30.26R WCI  30
NORTH PHILA    CLEAR     37  29  72 CALM      30.25R
BLUE BELL      PTCLDY    32  32 100 CALM      30.23S
DOYLESTOWN     PTCLDY    34  30  85 CALM      30.22S
POTTSTOWN      PTCLDY    27  25  92 CALM      30.24S
LANCASTER      PTCLDY    27  25  92 CALM      30.24S
COATESVILLE    FAIR      34  30  86 W5        30.23S WCI  30
READING        PTCLDY    30  27  88 CALM      30.23R
ALLENTOWN      PTCLDY    30  25  81 CALM      30.22S
MOUNT POCONO   MOCLDY    35  27  72 NW6       30.16S WCI  30
HAZLETON       MOCLDY    32  30  93 CALM      30.22R
WILKES BARRE   CLOUDY    34  29  82 S7        30.19F WCI  28

$$
DEZALL-MDZ008-012-015-019-020-270900-
DELAWARE AND EASTERN MARYLAND

CITY           SKY/WX    TMP DP  RH WIND       PRES   REMARKS
WILMINGTON     CLEAR     33  30  88 CALM      30.26R
DOVER          CLEAR     35  32  90 S6        30.22F WCI  30
GEORGETOWN     CLEAR     37  34  89 SW7       30.25F WCI  32
EASTON         PTCLDY    37  37 100 CALM      30.29F
PATUXENT       PTCLDY    32  30  92 CALM      30.25F
OCEAN CITY     CLEAR     37  35  92 W7        30.27R WCI  32
WALLOPS ISLAND CLEAR     36  35  96 SW8       30.28S WCI  30
CAMBRIDGE        N/A     36  34  93 S3        30.25F VSB 1/2
SALISBURY      CLEAR     35  31  85 S3        30.26F FOG

$$
PAZ001-021-NYZ056-072-MDZ011-DCZ001-270900-
OTHER NEARBY LOCATIONS

CITY           SKY/WX    TMP DP  RH WIND       PRES   REMARKS
HARRISBURG     MOCLDY    29  27  92 N3        30.24S
STATE COLLEGE  CLOUDY    31  28  86 CALM      30.20F
WILLIAMSPORT   CLOUDY    31  26  82 CALM      30.23S
BINGHAMTON     MOCLDY    35  28  75 SW6       30.15S WCI  30
NEW YORK CITY  PTCLDY    45  29  53 CALM      30.23R
BALTIMORE      PTCLDY    31  28  89 CALM      30.24S
WASHINGTON DC  FAIR      38  32  79 SW3       30.26S

$$


USA.gov is the U.S. government's official web portal to all federal, state and local government web resources and services.